DW0465 Weather Reports


Display with metric or nautical units.
time (UTC)temp
F
wind
direction
speed
MPH
gust
MPH
rain 1hr
in
rain 24hr
in
rain mn
in
humidity
%
barometer
mb
20260509191603 45 38 0.0 0.0 0.04 0.08 0.08 80 1012.4
20260509190058 44 38 0.0 0.0 0.04 0.08 0.08 76 1012.0
20260509184552 45 355 0.0 4.0 0.02 0.06 0.06 73 1012.5
20260509183050 47 242 0.0 2.0 0.01 0.05 0.05 66 1012.3
20260509181555 47 348 0.0 4.0 0.00 0.04 0.04 68 1012.2
20260509180046 48 350 0.0 2.0 0.00 0.04 0.04 63 1011.8
20260509174554 49 30 0.0 6.0 0.00 0.04 0.04 61 1011.6
20260509173049 50 32 0.0 2.0 0.00 0.04 0.04 58 1011.1
20260509171549 51 24 0.0 0.0 0.00 0.04 0.04 58 1011.0
20260509170044 52 59 0.0 5.0 0.00 0.04 0.04 59 1010.9
20260509164542 50 11 0.0 1.0 0.00 0.04 0.04 62 1010.9
20260509163036 50 25 0.0 1.0 0.00 0.04 0.04 59 1010.6
20260509161535 50 5 0.0 2.0 0.00 0.04 0.04 61 1010.5
20260509160032 50 48 0.0 1.0 0.00 0.04 0.04 65 1010.5
20260509154535 49 11 0.0 2.0 0.00 0.04 0.04 66 1010.4
20260509153033 49 343 0.0 2.0 0.00 0.04 0.04 67 1010.5
20260509151527 48 15 0.0 2.0 0.00 0.04 0.04 70 1010.4
20260509150025 48 355 0.0 3.0 0.00 0.04 0.04 69 1010.4
20260509144524 48 5 0.0 1.0 0.00 0.04 0.04 69 1010.2
20260509143022 47 9 0.0 0.0 0.00 0.04 0.04 75 1010.2
20260509141520 46 5 0.0 0.0 0.00 0.04 0.04 74 1010.3
20260509140016 46 41 0.0 0.0 0.00 0.04 0.04 80 1010.2
20260509134512 45 11 0.0 0.0 0.00 0.04 0.04 85 1010.2
20260509133009 45 268 0.0 0.0 0.00 0.04 0.04 87 1010.1
20260509131510 45 261 0.0 0.0 0.00 0.04 0.04 87 1009.8
20260509130007 44 350 0.0 0.0 0.00 0.04 0.04 89 1009.8
20260509124502 45 317 0.0 0.0 0.00 0.05 0.04 89 1009.6
20260509123059 45 316 0.0 0.0 0.00 0.05 0.04 88 1009.3
20260509121609 45 316 0.0 0.0 0.00 0.05 0.04 88 1009.0
20260509120054 45 316 0.0 0.0 0.00 0.05 0.04 88 1009.0
20260509114551 46 316 0.0 0.0 0.01 0.05 0.04 88 1008.7
20260509113055 46 218 0.0 1.0 0.01 0.05 0.04 89 1008.5
20260509111556 46 228 0.0 0.0 0.01 0.05 0.04 89 1008.6
20260509110046 46 227 0.0 0.0 0.01 0.05 0.04 88 1008.3
20260509104547 46 178 0.0 0.0 0.00 0.04 0.03 88 1008.2
20260509103045 47 64 0.0 0.0 0.00 0.04 0.03 87 1008.1
20260509101545 47 64 0.0 0.0 0.00 0.04 0.03 85 1008.1
20260509100045 47 64 0.0 0.0 0.03 0.04 0.03 84 1008.2
20260509094541 47 43 0.0 0.0 0.03 0.04 0.03 84 1008.3
20260509093037 48 19 0.0 0.0 0.03 0.04 0.03 82 1008.3
20260509091535 49 5 0.0 0.0 0.03 0.04 0.03 80 1008.3
20260509090032 50 240 0.0 0.0 0.00 0.01 0.00 78 1008.4
20260509084535 50 36 0.0 0.0 0.00 0.01 0.00 76 1007.8
20260509083035 50 30 0.0 2.0 0.00 0.01 0.00 76 1007.2
20260509081523 50 19 0.0 0.0 0.00 0.01 0.00 76 1006.7
20260509080027 51 134 0.0 0.0 0.00 0.01 0.00 70 1006.3
20260509074519 50 134 0.0 0.0 0.00 0.01 0.00 73 1006.6
20260509073018 51 132 0.0 0.0 0.00 0.01 0.00 76 1006.8
20260509071517 51 49 0.0 0.0 0.00 0.01 0.00 75 1006.9
20260509070016 52 50 0.0 0.0 0.00 0.01 0.00 73 1006.7
20260509064512 52 36 0.0 0.0 0.00 0.02 0.00 70 1006.9
20260509063012 52 36 0.0 0.0 0.00 0.02 0.00 68 1006.7
20260509061516 52 36 0.0 0.0 0.00 0.02 0.00 68 1006.8
20260509060011 52 30 0.0 0.0 0.00 0.02 0.00 70 1006.8
20260509054507 52 30 0.0 0.0 0.00 0.05 0.02 69 1007.0
20260509053006 53 30 0.0 0.0 0.00 0.05 0.02 68 1007.0
20260509051505 54 30 0.0 0.0 0.00 0.05 0.02 66 1007.1
20260509050005 54 31 0.0 0.0 0.00 0.05 0.02 63 1007.2
20260509044504 55 348 0.0 0.0 0.00 0.11 0.02 59 1007.3
20260509043005 56 355 0.0 0.0 0.00 0.11 0.02 54 1007.5
20260509041503 57 37 0.0 2.0 0.00 0.11 0.02 49 1007.6
20260509040002 58 346 0.0 2.0 0.00 0.11 0.02 46 1007.6
20260509034502 59 344 0.0 2.0 0.00 0.14 0.02 46 1007.5
20260509033002 59 30 0.0 4.0 0.00 0.14 0.02 46 1007.4
20260509031502 60 346 0.0 2.0 0.00 0.14 0.02 47 1007.1
20260509024601 59 347 0.0 0.0 0.00 0.16 0.02 45 1006.5
20260509023100 60 126 0.0 0.0 0.00 0.16 0.02 52 1006.2
20260509021600 61 126 0.0 0.0 0.00 0.16 0.02 50 1006.2
20260509020100 62 126 0.0 0.0 0.00 0.16 0.02 43 1006.0
20260509014602 62 121 0.0 2.0 0.00 0.20 0.02 41 1005.9
20260509013103 63 157 0.0 1.0 0.00 0.20 0.02 41 1006.0
20260509011558 63 138 0.0 2.0 0.00 0.20 0.02 41 1006.0
20260509010058 63 132 0.0 2.0 0.00 0.20 0.02 41 1005.9
20260509004601 64 143 0.0 3.0 0.00 0.20 0.02 41 1005.9
20260509003056 65 153 0.0 0.0 0.00 0.20 0.02 39 1005.9
20260509001555 65 132 0.0 0.0 0.00 0.20 0.02 38 1006.1
20260509000052 65 178 0.0 1.0 0.00 0.20 0.02 38 1006.2
20260508234552 65 148 0.0 3.0 0.00 0.20 0.02 39 1006.4
20260508233057 66 140 0.0 2.0 0.00 0.20 0.02 37 1006.4
20260508231550 67 155 0.0 6.0 0.00 0.20 0.02 35 1006.5
20260508230056 67 134 0.0 2.0 0.00 0.20 0.02 36 1006.8
20260508224546 66 168 0.0 9.0 0.00 0.22 0.02 37 1007.2
20260508223042 66 128 0.0 5.0 0.00 0.22 0.02 37 1007.3
20260508221546 66 159 0.0 2.0 0.00 0.22 0.02 37 1007.6
20260508220037 65 205 0.0 2.0 0.00 0.22 0.02 38 1007.9
20260508214533 65 143 0.0 3.0 0.00 0.25 0.02 39 1008.1
20260508213030 64 143 0.0 1.0 0.00 0.25 0.02 38 1008.2
20260508211527 64 219 0.0 7.0 0.00 0.25 0.02 40 1008.5
20260508210025 63 217 0.0 7.0 0.00 0.25 0.02 42 1008.7
20260508204522 63 146 0.0 7.0 0.00 0.25 0.02 42 1008.8
20260508203018 62 215 0.0 2.0 0.00 0.25 0.02 43 1008.9
20260508201516 62 140 0.0 5.0 0.00 0.25 0.02 44 1009.2
20260508200013 62 124 0.0 6.0 0.00 0.25 0.02 44 1009.6
20260508194611 60 160 0.0 3.0 0.00 0.36 0.02 48 1009.7
20260508193009 60 71 0.0 3.0 0.00 0.36 0.02 46 1009.8